TimeMDT,TemperatureF,Dew PointF,Humidity,Sea Level PressureIn,VisibilityMPH,Wind Direction,Wind SpeedMPH,Gust SpeedMPH,PrecipitationIn,Events,Conditions,WindDirDegrees,DateUTC
12:53 AM,80.1,48.0,32,29.78,10.0,WSW,4.6,-,N/A,,Clear,250,2013-07-15 06:53:00
1:53 AM,82.0,45.0,27,29.78,10.0,North,3.5,-,N/A,,Clear,360,2013-07-15 07:53:00
2:53 AM,82.0,42.1,24,29.78,10.0,Variable,5.8,-,N/A,,Clear,0,2013-07-15 08:53:00
3:53 AM,79.0,43.0,28,29.77,10.0,Calm,Calm,-,N/A,,Clear,0,2013-07-15 09:53:00
4:53 AM,79.0,44.1,29,29.77,10.0,SE,6.9,-,N/A,,Clear,130,2013-07-15 10:53:00
5:53 AM,77.0,46.9,34,29.79,10.0,East,11.5,-,N/A,,Clear,90,2013-07-15 11:53:00
6:53 AM,77.0,48.0,36,29.80,10.0,East,8.1,-,N/A,,Clear,90,2013-07-15 12:53:00
7:53 AM,80.1,48.0,32,29.82,10.0,ESE,3.5,-,N/A,,Clear,120,2013-07-15 13:53:00
8:53 AM,82.9,48.0,29,29.83,10.0,East,6.9,-,N/A,,Clear,90,2013-07-15 14:53:00
9:53 AM,84.9,48.9,29,29.83,10.0,Variable,5.8,-,N/A,,Clear,0,2013-07-15 15:53:00
10:53 AM,89.1,46.9,23,29.81,10.0,East,6.9,-,N/A,,Clear,90,2013-07-15 16:53:00
11:53 AM,91.9,46.9,21,29.79,10.0,ENE,5.8,-,N/A,,Clear,60,2013-07-15 17:53:00
12:53 PM,93.0,46.0,20,29.77,10.0,Calm,Calm,-,N/A,,Clear,0,2013-07-15 18:53:00
1:53 PM,96.1,44.1,17,29.73,10.0,SSE,9.2,-,N/A,,Clear,160,2013-07-15 19:53:00
2:53 PM,95.0,43.0,17,29.69,10.0,SSW,5.8,-,N/A,,Clear,210,2013-07-15 20:53:00
3:53 PM,99.0,42.1,14,29.65,10.0,North,9.2,-,N/A,,Clear,350,2013-07-15 21:53:00
4:53 PM,98.1,39.0,13,29.64,10.0,Variable,4.6,-,N/A,,Clear,0,2013-07-15 22:53:00
5:53 PM,98.1,39.9,13,29.62,10.0,Calm,Calm,-,N/A,,Clear,0,2013-07-15 23:53:00
6:53 PM,91.9,46.0,21,29.65,10.0,North,26.5,32.2,N/A,,Scattered Clouds,350,2013-07-16 00:53:00
7:53 PM,88.0,48.0,25,29.69,10.0,SW,9.2,-,N/A,,Mostly Cloudy,230,2013-07-16 01:53:00
8:53 PM,86.0,48.9,28,29.69,10.0,SW,6.9,-,N/A,,Clear,230,2013-07-16 02:53:00
9:53 PM,86.0,48.0,27,29.74,10.0,South,16.1,-,N/A,,Partly Cloudy,170,2013-07-16 03:53:00
10:53 PM,80.1,54.0,40,29.82,10.0,ESE,18.4,-,N/A,,Overcast,120,2013-07-16 04:53:00
11:53 PM,79.0,54.0,42,29.81,10.0,SSE,19.6,23.0,N/A,,Overcast,160,2013-07-16 05:53:00